EW3845 Weather Reports


time (UTC)temp
C
wind
direction
speed
KPH
gust
KPH
rain 1hr
cm
rain 24hr
cm
rain mn
cm
humidity
%
barometer
mb
20260505051545 13 97 0.0 0.0 0.03 0.86 0.15 96 1009.0
20260505041600 13 97 0.0 0.0 0.08 0.84 0.15 96 1009.0
20260505040041 13 97 0.0 0.0 0.08 0.84 0.15 95 1009.1
20260505034544 13 97 0.0 0.0 0.05 0.81 0.13 95 1009.2
20260505033039 13 97 0.0 0.0 0.05 0.79 0.10 95 1009.2
20260505031537 13 102 0.0 0.0 0.00 0.76 0.05 95 1009.4
20260505030036 12 102 0.0 0.0 0.00 0.76 0.05 95 1009.6
20260505024543 13 102 0.0 0.0 0.00 0.76 0.05 95 1009.6
20260505023040 13 102 0.0 0.0 0.00 0.76 0.05 95 1009.6
20260505021538 13 102 0.0 0.0 0.00 0.76 0.05 95 1009.6
20260505020032 13 102 0.0 0.0 0.05 0.76 0.05 95 1009.7
20260505014536 13 102 0.0 0.0 0.05 0.76 0.05 95 1009.7
20260505013030 13 102 0.0 0.0 0.05 0.76 0.05 95 1009.7
20260505011526 13 102 0.0 0.0 0.05 0.76 0.05 95 1009.8
20260505010025 13 102 0.0 0.0 0.03 0.71 0.03 95 1009.9
20260505004524 13 102 0.0 0.0 0.03 0.71 0.03 95 1010.0
20260505003021 13 102 0.0 0.0 0.00 0.71 0.00 95 1010.2
20260505001520 13 102 0.0 0.0 0.00 0.71 0.00 95 1010.3
20260505000029 13 102 0.0 0.0 0.00 0.71 0.00 95 1010.4
20260504234517 13 102 0.0 0.0 0.00 0.71 0.00 95 1010.5
20260504233021 13 102 0.0 0.0 0.00 0.71 0.00 95 1010.5
20260504231525 13 102 0.0 0.0 0.00 0.71 0.00 95 1010.6
20260504230017 13 102 0.0 0.0 0.00 0.71 0.00 95 1010.8
20260504224514 13 102 0.0 0.0 0.00 0.71 0.00 95 1011.0
20260504223010 13 103 0.0 0.0 0.00 0.71 0.00 95 1011.2
20260504221508 13 103 0.0 0.0 0.00 0.71 0.00 94 1011.3
20260504220013 13 103 0.0 0.0 0.00 0.71 0.71 94 1011.4
20260504214509 13 103 0.0 0.0 0.00 0.71 0.71 94 1011.6
20260504213010 13 103 0.0 0.0 0.00 0.71 0.71 94 1011.8
20260504211506 13 103 0.0 0.0 0.00 0.71 0.71 94 1011.8
20260504210005 13 103 0.0 0.0 0.00 0.71 0.71 94 1011.9
20260504204504 13 103 0.0 0.0 0.00 0.71 0.71 94 1011.9
20260504203013 13 103 0.0 0.0 0.00 0.71 0.71 94 1012.0
20260504201504 13 103 0.0 0.0 0.00 0.71 0.71 94 1012.0
20260504200003 13 103 0.0 0.0 0.00 0.71 0.71 94 1011.9
20260504194503 13 103 0.0 0.0 0.00 0.71 0.71 94 1011.8
20260504193005 13 103 0.0 0.0 0.00 0.71 0.71 94 1011.8
20260504191501 13 103 0.0 0.0 0.00 0.71 0.71 93 1011.6
20260504190002 13 103 0.0 0.0 0.00 0.71 0.71 93 1011.6
20260504184503 14 103 0.0 0.0 0.00 0.71 0.71 93 1011.6
20260504183100 14 96 0.0 0.0 0.00 0.71 0.71 93 1011.5
20260504181604 15 96 0.0 0.0 0.00 0.71 0.71 93 1011.5
20260504180201 15 96 0.0 0.0 0.00 0.71 0.71 93 1011.3
20260504174600 15 94 0.0 0.0 0.03 0.71 0.71 93 1011.5
20260504173120 15 94 0.0 0.0 0.03 0.71 0.71 93 1011.6
20260504171558 15 25 0.0 0.0 0.05 0.71 0.71 92 1011.6
20260504160156 15 158 0.0 0.0 0.58 0.66 0.64 90 1012.1
20260504081547 17 161 0.0 0.0 0.00 0.10 0.00 81 1012.4
20260504060142 12 92 0.0 0.0 0.00 0.10 0.00 92 1012.0